SCP
0 0 0 0 0 0 0 0 0 0 0 0 0 0 0 0 0 0 0 0 0 0 0 0 0 0 0 0 0 0 0 0 1 0 0 0 0 0 0 0 0 0 0 0 0 0 0 0 0 0 0 0 0 0
0 0 0 0 0 0 0 0 0 0 0 0 0 0 0 0 0 0 0 0 0 0 0 0 0 0 0 0 0 0 0 0 1 0 1 2 1 0 0 0 0 0 0 0 0 0 0 0 0 0 0 0 0 0
0 0 0 0 0 0 0 0 0 0 0 0 0 0 0 0 0 0 0 0 0 0 0 0 0 0 0 0 0 0 0 0 0 0 0 1 1 0 0 0 0 0 0 0 0 0 0 0 0 0 0 0 0 0
0 0 0 0 0 0 0 0 0 0 0 0 0 0 0 0 0 0 0 0 0 0 0 0 0 0 0 0 0 0 0 0 0 0 0 0 1 0 0 0 0 0 0 0 0 0 0 0 0 0 0 0 0 0
0 0 0 0 0 0 0 0 0 0 0 0 0 0 0 0 0 0 0 0 0 0 0 0 0 0 0 0 0 0 0 0 0 0 0 0 0 0 0 0 0 0 0 0 0 0 0 0 0 0 0 0 0 0
0 0 0 0 0 0 0 0 0 0 0 0 0 0 0 0 0 0 0 0 0 0 0 -0 0 0 0 0 0 0 0 0 0 0 0 0 0 0 0 0 0 0 0 0 0 0 0 0 0 0 0 0 0 0
0 0 0 0 0 0 0 0 0 0 0 0 0 0 0 0 0 0 0 0 0 0 0 0 0 0 0 0 0 0 0 0 0 0 0 0 0 0 0 0 0 0 0 0 0 0 0 0 0 0 0 0 0 0
0 0 0 0 0 0 0 0 0 0 0 0 0 0 0 0 0 0 0 -0 0 0 0 0 0 0 0 0 0 0 0 0 0 0 0 0 0 0 0 0 0 0 0 0 0 0 0 0 0 0 0 0 0 1
0 0 0 0 0 0 0 0 0 0 0 0 0 0 0 0 0 0 0 0 0 0 0 0 0 0 0 0 0 0 0 0 0 0 0 0 0 0 0 0 0 0 0 0 0 0 0 0 0 0 0 0 0 0
0 0 0 0 0 0 0 0 0 0 0 0 0 0 0 0 0 0 0 0 0 0 0 0 0 0 0 0 0 0 0 0 0 0 0 0 0 0 0 0 0 0 0 0 0 0 0 0 0 0 0 0 0 0
0 0 0 0 0 0 0 0 0 0 0 0 0 0 0 0 0 0 0 0 0 0 0 0 0 0 0 0 0 0 0 0 0 0 0 0 0 0 0 0 0 0 0 0 0 0 0 0 0 0 0 0 0 0
0 0 0 0 0 0 0 0 0 0 0 0 0 0 0 0 0 0 0 0 0 0 0 0 0 0 0 0 0 0 0 0 0 0 0 0 0 0 0 0 0 0 0 0 0 0 0 0 0 0 0 0 0 0
0 0 0 0 0 0 0 0 0 0 0 0 0 0 0 0 0 0 0 0 0 0 0 0 0 0 0 0 0 0 0 0 0 0 0 0 0 0 0 0 0 0 0 0 0 0 0 0 0 0 0 0 0 0
0 0 0 0 0 0 0 0 0 0 0 0 0 0 0 0 0 0 0 0 0 0 0 0 0 0 0 0 0 0 0 0 0 0 0 0 0 0 0 0 0 0 0 0 0 0 0 0 0 0 0 0 0 0
0 0 0 0 -0 -0 0 0 0 0 0 0 0 0 0 0 0 0 0 0 0 -0 -0 0 0 0 0 0 0 0 0 0 0 0 0 0 0 0 0 0 -0 -0 -0 0 0 0 0 0 0 0 0 0 0 0
0 0 0 0 0 0 0 0 0 0 0 0 0 0 0 0 0 0 0 0 0 0 0 0 0 0 0 0 0 0 0 0 0 0 0 0 0 0 0 0 0 -0 -0 0 0 0 0 0 0 0 0 0 0 -0
0 0 0 0 0 0 0 0 0 0 0 0 0 0 -0 0 0 0 0 0 0 0 0 0 0 0 0 0 0 0 0 0 0 0 0 0 0 0 0 0 0 0 0 0 0 0 0 0 0 0 0 0 0 -0
0 0 0 0 0 0 0 0 0 0 0 0 -0 -0 -0 0 0 0 0 0 0 0 0 0 0 0 0 0 0 0 0 0 0 0 0 -0 -0 0 0 0 0 0 0 0 0 0 0 0 0 0 0 0 0 0
0 0 0 0 0 0 0 0 0 0 0 0 0 0 -0 0 0 0 0 0 0 0 0 0 0 0 0 0 0 0 0 0 0 0 0 0 0 0 0 0 0 0 0 0 0 0 0 0 0 0 0 0 0 -0
0 0 0 0 0 0 0 -0 0 0 0 0 0 0 -0 -0 -0 -0 0 0 0 0 0 0 0 0 0 0 0 0 0 0 0 0 -0 -0 -0 0 -0 0 0 0 0 0 0 0 0 0 0 0 0 0 0 0
0 0 0 0 0 0 0 0 0 0 0 0 0 0 0 -0 -0 -0 0 0 0 -0 0 0 0 0 0 0 0 0 0 0 0 0 0 0 0 0 0 0 0 0 0 0 0 0 0 0 0 0 0 0 0 0
0 0 0 0 0 -0 -0 0 0 0 0 0 0 -0 -0 -0 -0 -0 0 0 0 0 0 0 0 0 0 0 0 -0 -0 -0 -0 0 0 0 0 0 0 0 0 0 0 0 0 0 0 0 0 0 0 0 0 0
0 0 0 -0 -0 -0 0 0 0 0 0 0 0 0 0 0 0 0 0 0 0 0 0 0 0 0 0 0 0 0 -0 -0 0 0 0 0 0 0 0 0 0 0 0 0 0 0 0 0 0 0 0 0 0 0
-0 -0 -0 -0 -0 0 0 0 -0 0 -0 -0 0 0 0 0 0 0 0 0 0 0 0 0 0 0 0 0 0 0 0 0 0 0 0 0 0 0 0 0 0 0 0 0 0 0 0 0 0 0 0 0 0 0
-0 0 0 0 0 0 0 -0 -0 -0 0 0 -0 -0 -0 -0 0 0 0 0 0 0 0 0 0 0 0 0 0 0 0 0 0 0 0 0 0 0 0 0 0 0 0 0 0 0 0 0 0 0 0 0 0 0
0 0 0 -0 -0 -0 -0 -0 -0 -0 -0 -0 -0 -0 -0 -0 -0 -0 0 0 0 0 0 0 0 0 0 0 0 0 0 0 0 0 0 0 0 0 0 0 0 0 0 0 0 0 0 0 0 0 0 0 0 0
0 0 -0 -0 -0 -0 -0 -0 -0 -0 -0 -0 -0 -0 -0 -0 -0 -0 0 0 0 0 0 0 0 0 0 0 0 0 0 0 0 0 0 0 0 0 0 0 0 0 0 0 0 0 0 0 0 0 0 0 0 0
0 0 0 0 0 0 0 0 0 0 0 0 -0 -0 -0 0 -0 0 0 0 0 0 0 0 0 0 0 0 0 0 0 0 0 0 0 0 0 0 0 0 0 0 0 0 0 0 0 0 0 0 0 0 0 0
0 0 0 0 0 0 0 0 -0 -0 0 0 0 0 0 0 0 0 0 0 0 -0 0 -0 0 0 0 0 0 0 0 0 0 0 0 0 0 0 0 0 0 0 0 0 0 0 0 0 0 0 0 0 0 0
0 -0 0 0 0 -0 -0 0 0 -0 0 0 0 0 0 0 0 0 0 0 0 0 -0 -0 -0 0 0 0 0 0 0 0 0 0 0 0 0 0 0 0 0 0 0 0 0 0 0 0 0 0 0 0 0 0
0 0 -0 0 0 0 0 -0 0 0 0 0 0 0 0 0 0 -0 0 0 0 0 0 0 0 0 0 -0 -0 -0 0 0 0 0 0 0 0 0 0 0 0 0 0 0 0 0 0 0 0 0 0 0 0 0
-0 -0 0 -0 -0 0 0 -0 -0 -0 0 0 0 0 0 0 0 0 0 -0 0 0 -0 -0 0 0 0 0 0 -0 -0 -0 0 0 0 0 0 0 0 0 0 0 0 0 0 0 0 0 0 0 0 0 0 0
-0 -0 0 -0 -0 0 -0 -0 -0 -0 -0 -0 -0 -0 -0 -0 0 -0 0 0 0 0 0 0 -0 -0 -0 0 -0 -0 -0 -0 -0 0 0 0 0 0 0 0 0 0 0 0 0 0 0 0 0 0 0 0 0 0
Wind_Speed_500mb
53 46 39 32 25 18 12 7 5 6 9 11 12 14 14 14 12 6 12 13 10 11 26 25 19 25 17 4 2 26 16 10 11 8 4 4 5 8 3 8 10 13 11 7 6 4 13 16 15 15 12 13 32 24
51 44 37 30 23 16 11 7 7 9 12 12 13 14 15 16 16 11 16 18 17 19 18 16 26 29 31 25 29 9 13 16 6 5 4 3 3 1 4 7 1 4 10 9 14 11 7 37 11 28 15 32 31 23
47 40 33 26 20 14 11 9 10 12 14 16 15 14 16 17 17 18 16 21 20 22 45 41 24 11 29 39 27 13 10 5 8 13 5 4 7 6 2 7 3 4 3 6 3 7 9 18 27 19 26 26 23 23
45 37 31 24 19 14 12 12 13 14 16 18 18 16 16 18 18 21 19 15 13 7 10 12 12 20 16 19 27 38 39 34 40 37 15 4 5 7 6 6 6 4 3 4 6 16 13 13 28 35 36 26 25 27
42 34 29 23 19 16 14 14 15 16 17 19 20 19 16 18 18 19 21 15 15 13 7 25 51 34 33 38 37 41 41 41 32 7 6 7 10 1 4 3 5 16 12 9 11 21 14 20 34 37 34 31 28 38
37 32 26 21 17 15 14 14 15 16 17 20 21 19 16 16 15 13 9 17 26 23 9 8 19 32 26 31 34 36 39 47 37 14 14 12 13 3 4 6 17 30 26 24 14 15 36 16 36 39 39 37 39 40
36 30 25 20 16 14 13 13 14 15 17 20 20 16 15 15 16 17 5 9 27 24 6 14 17 14 18 19 38 46 40 33 36 20 16 22 38 19 5 8 29 27 30 26 35 29 26 37 40 48 49 41 46 40
33 27 22 18 15 11 9 10 13 15 17 19 14 11 11 12 14 20 11 21 8 10 7 6 11 16 6 8 13 37 38 34 25 23 10 11 9 9 9 29 42 48 51 48 46 47 52 53 52 48 45 50 53 51
29 24 20 16 11 7 6 9 12 14 19 16 7 5 10 8 5 6 10 21 14 14 8 6 4 8 22 7 8 12 24 7 12 16 20 14 6 11 15 33 44 50 54 50 51 51 52 63 44 46 50 54 64 59
27 24 20 13 7 3 5 9 11 15 15 7 6 3 5 3 6 6 14 10 13 15 15 10 10 8 18 20 9 6 8 8 7 12 20 8 20 55 64 72 79 75 67 59 55 57 58 67 63 50 68 69 73 68
28 23 16 9 3 2 6 10 11 14 5 5 3 5 8 8 5 7 10 10 11 7 15 20 41 17 14 2 6 9 5 3 6 11 12 7 7 29 60 75 76 72 67 68 78 70 62 68 65 66 67 74 74 60
25 19 13 6 3 5 8 10 11 8 2 7 6 9 9 9 9 6 8 8 8 9 13 18 29 43 22 22 11 12 7 3 11 5 7 6 14 57 51 45 46 48 47 43 49 56 57 63 71 68 68 75 63 48
20 14 8 2 4 6 7 6 9 5 7 4 4 4 6 6 1 9 10 6 6 10 11 18 7 11 20 24 13 3 6 10 3 4 7 9 10 11 15 20 30 36 40 44 42 41 44 44 49 48 57 66 61 51
15 9 3 3 6 6 7 5 7 1 8 5 4 6 7 7 8 7 5 8 23 15 21 24 14 16 17 10 12 7 9 2 1 4 9 8 23 22 20 16 12 21 27 29 33 29 20 22 36 47 60 65 57 48
11 4 2 5 6 4 6 5 4 5 5 5 6 8 12 15 18 22 26 22 29 24 17 9 12 14 7 6 8 4 4 9 9 10 8 19 12 8 6 10 16 17 17 13 6 9 33 53 65 71 62 48 27 13
7 5 5 2 3 6 8 7 5 6 6 8 12 8 12 19 15 21 36 40 34 34 20 12 9 3 11 7 6 11 6 7 6 10 31 20 14 10 4 3 4 5 2 4 18 29 52 63 60 49 25 19 30 18
8 9 8 3 5 6 10 8 3 7 9 9 14 23 30 22 25 37 45 44 33 34 5 6 7 17 4 6 9 7 4 8 25 23 14 7 8 2 4 3 3 7 15 24 25 29 37 42 38 27 26 27 14 32
10 13 10 4 9 9 9 7 5 10 13 22 17 21 23 34 28 42 51 35 35 34 13 5 8 4 4 4 5 4 6 13 16 15 16 14 12 11 6 4 10 9 12 15 18 31 32 29 27 21 26 42 44 44
17 9 7 4 6 10 7 9 13 10 23 26 30 35 32 44 38 47 51 56 51 39 18 13 7 5 2 2 7 13 15 14 16 10 8 9 8 10 10 8 10 13 15 18 23 31 42 38 22 19 38 39 38 37
19 14 11 10 11 9 8 10 14 12 11 9 20 25 21 26 35 41 38 41 39 15 8 6 7 5 5 10 15 19 18 14 10 3 3 7 6 6 3 7 10 13 17 16 18 23 29 29 20 31 35 21 11 22
16 16 17 20 24 16 12 9 11 12 15 14 21 20 16 23 29 29 30 30 20 14 13 20 11 12 14 23 22 22 21 25 29 20 28 17 16 12 6 4 6 12 18 33 52 55 50 48 41 38 36 33 24 30
7 5 10 10 9 9 15 17 13 15 12 17 20 12 14 10 10 7 12 10 11 15 18 16 21 21 23 25 24 25 27 28 28 30 30 28 30 16 10 18 26 28 32 35 31 31 37 28 26 24 37 42 40 34
5 9 10 10 9 11 12 12 11 9 8 8 10 8 8 7 7 12 6 7 9 13 17 20 19 17 19 21 25 25 22 21 22 20 17 22 16 12 19 16 17 18 25 33 35 33 35 36 38 32 30 24 18 17
13 8 8 9 19 10 8 10 13 10 8 5 3 7 6 6 9 7 6 6 8 18 19 21 16 12 12 14 10 10 10 14 13 15 14 25 27 24 22 16 13 16 25 27 28 39 39 38 32 26 21 18 17 16
7 11 10 16 15 11 8 6 6 2 6 6 6 7 8 8 2 4 4 8 19 12 9 17 23 26 20 27 24 21 27 39 44 46 46 51 48 54 55 53 51 49 46 40 33 30 31 27 26 24 20 16 14 13
12 13 14 10 10 10 8 5 8 9 6 6 8 8 6 5 5 3 4 11 14 9 17 24 34 35 27 27 31 30 31 39 44 54 49 36 31 38 34 28 24 32 31 21 17 17 18 15 9 6 7 10 10 10
9 11 19 19 12 8 7 9 10 7 6 6 6 5 5 4 2 3 8 14 23 27 39 49 48 47 50 46 41 34 31 32 47 53 37 28 27 27 23 24 22 16 7 7 8 9 9 8 9 10 13 13 13 16
21 13 13 14 15 17 6 5 5 7 8 12 7 3 2 5 3 6 19 36 39 38 46 54 55 51 54 58 54 56 37 24 17 17 14 12 12 10 9 9 9 4 8 10 10 11 14 14 13 12 11 14 17 23
14 20 15 10 12 12 17 14 12 13 12 11 5 3 3 2 13 16 23 26 25 29 28 22 27 30 33 28 20 13 11 14 14 17 22 24 19 17 11 5 0 4 7 10 13 15 14 11 10 10 13 17 20 21
7 11 8 8 4 9 14 6 15 21 10 22 19 27 32 33 20 10 18 25 36 28 25 26 23 16 17 15 16 15 14 13 10 9 12 16 16 11 6 7 7 6 6 7 10 10 11 13 14 16 16 16 18 22
7 10 12 15 12 23 30 35 44 51 57 57 53 47 35 33 47 44 37 27 21 18 17 18 18 12 12 14 14 12 16 22 19 13 12 11 7 7 9 9 8 5 5 7 8 9 11 10 11 14 16 20 24 26
14 11 5 7 7 20 15 17 16 19 22 29 32 37 32 20 12 16 17 20 12 17 18 15 14 17 13 11 13 18 21 23 20 14 9 6 6 10 10 8 5 4 5 6 9 11 12 13 12 12 15 18 21 23
11 12 22 9 2 5 8 4 2 5 4 5 3 6 8 6 7 7 19 12 11 11 10 12 15 17 17 14 15 16 16 18 23 21 15 14 12 12 13 13 14 14 10 8 9 10 11 13 13 14 18 21 24 28
Wind_Direction_500mb
174 175 175 175 175 178 186 207 255 295 310 311 305 299 291 281 270 239 197 215 220 247 262 256 247 278 290 293 42 325 335 341 3 55 125 221 189 238 165 216 193 180 152 197 108 133 266 156 136 173 210 170 173 187
172 174 175 177 180 188 201 230 272 298 308 312 309 300 288 279 272 246 204 213 238 262 264 265 250 263 261 272 284 293 290 282 341 48 335 300 286 332 155 270 102 229 181 188 176 215 219 196 234 216 233 180 182 196
172 174 178 182 188 198 220 248 277 296 309 315 313 302 285 273 270 258 233 221 247 284 291 273 279 237 243 243 249 237 262 280 50 9 321 265 265 138 147 250 302 304 152 143 97 247 262 227 214 216 189 193 193 203
172 176 180 185 193 208 233 259 278 293 308 315 313 303 282 268 261 257 248 233 237 276 283 287 232 229 205 213 233 246 255 263 282 295 306 262 240 207 222 225 187 212 43 134 273 283 298 209 193 192 188 203 203 191
171 176 180 186 197 215 239 259 275 290 307 315 314 306 289 267 258 258 255 240 224 236 279 292 299 282 248 242 245 242 242 251 262 258 228 241 257 287 296 37 263 192 183 163 226 229 201 217 210 196 206 218 235 200
172 177 180 187 202 222 239 257 278 294 306 314 315 308 287 267 256 249 231 231 210 219 292 308 301 286 265 245 238 232 239 235 232 200 216 240 253 313 315 230 259 228 215 217 229 246 231 250 199 210 221 235 219 211
172 174 180 190 203 220 239 262 282 298 309 316 317 302 287 267 238 214 188 186 174 187 249 294 287 283 295 276 228 227 227 225 224 216 222 238 265 285 213 239 276 265 223 238 252 252 246 232 225 225 232 236 222 216
167 173 179 187 196 213 240 273 292 301 312 319 311 288 284 255 244 233 188 153 155 190 252 267 274 302 349 268 215 207 212 217 214 215 207 195 239 220 237 237 254 254 259 255 253 249 246 248 239 238 243 240 216 209
166 170 174 175 180 206 254 289 304 312 317 316 289 251 293 248 223 101 153 197 209 230 278 240 248 263 345 358 269 212 202 165 219 200 224 218 206 232 230 238 243 249 244 250 249 249 257 239 242 245 232 213 212 198
164 165 165 165 179 237 285 315 325 327 322 313 189 307 275 114 29 59 157 183 209 211 226 243 272 273 343 350 314 320 208 199 183 231 220 188 238 247 254 261 272 278 281 278 274 289 262 243 237 239 213 218 217 201
158 157 156 159 171 306 321 338 348 348 348 103 148 264 278 275 200 184 191 196 202 242 218 220 232 254 280 267 268 272 272 222 173 237 162 220 259 236 256 257 262 264 267 275 281 282 276 268 251 237 227 219 207 197
155 157 159 148 34 359 351 356 3 2 140 162 267 295 300 199 202 202 193 209 184 227 215 205 226 217 235 226 242 262 236 154 233 142 144 247 245 256 256 263 276 278 282 290 291 285 283 267 255 248 240 211 193 179
159 161 164 175 353 352 347 359 2 2 163 197 300 301 279 254 28 209 206 222 215 228 224 201 209 217 203 216 221 238 248 238 115 130 215 229 288 281 275 274 296 303 302 299 309 299 290 294 272 247 212 196 177 175
171 176 205 305 324 330 332 346 357 102 172 192 230 264 234 213 254 220 268 246 241 276 312 297 281 214 202 174 217 206 247 345 200 168 222 243 257 275 280 286 330 345 337 330 318 310 278 238 197 173 164 160 157 141
179 189 317 305 291 291 296 289 334 212 179 239 231 239 225 251 276 314 334 323 328 307 279 276 252 228 239 234 199 238 229 225 193 207 227 278 278 296 332 28 25 22 7 351 299 186 166 158 154 144 142 128 107 56
169 147 135 128 329 276 255 265 299 204 214 233 234 260 290 312 315 326 332 319 323 329 314 231 245 197 241 208 179 219 186 197 355 307 318 316 311 306 291 350 17 75 42 157 163 164 162 156 152 143 143 113 97 83
167 162 169 83 349 296 263 251 212 236 231 232 238 237 238 261 266 304 308 300 319 324 274 194 225 217 282 200 235 55 41 281 303 329 5 345 324 273 209 241 180 141 157 161 168 183 186 194 200 205 242 251 200 167
182 193 200 277 343 342 304 245 232 253 244 244 245 247 229 245 269 294 287 279 285 293 286 258 286 260 286 31 59 266 276 24 24 51 53 52 39 19 358 277 246 220 209 213 216 207 211 226 247 254 216 179 171 173
192 183 208 259 334 331 273 223 212 253 245 249 257 262 253 262 249 266 275 275 278 281 276 277 233 158 36 99 222 285 329 357 6 25 59 46 8 350 323 291 264 271 266 250 244 238 237 229 206 202 171 169 176 200
202 204 229 259 314 319 276 255 211 253 258 259 254 259 248 252 275 272 274 280 283 257 241 233 225 137 204 319 303 295 293 299 278 296 355 352 324 340 44 20 352 324 294 264 224 200 201 226 208 172 165 151 128 169
220 227 246 269 284 265 266 275 256 245 277 266 283 283 270 264 259 263 272 263 256 216 220 232 259 267 298 316 296 276 278 277 255 253 278 251 212 181 118 61 74 92 140 121 115 109 111 106 100 111 137 165 181 152
204 254 299 278 258 246 257 240 247 282 272 268 285 258 258 258 260 280 280 237 230 229 223 237 244 266 283 278 274 273 264 277 260 244 254 228 185 176 165 152 140 133 136 134 135 125 117 110 118 128 132 136 141 137
260 277 247 246 246 242 255 234 241 247 248 264 305 301 286 305 306 325 249 235 247 250 259 263 280 261 256 272 281 284 272 237 226 236 229 214 204 173 154 135 118 115 130 115 117 120 124 132 139 151 149 143 141 131
248 244 243 237 214 264 245 237 218 250 268 274 271 271 268 280 326 338 283 282 289 307 279 256 244 220 226 242 241 222 201 209 164 147 141 136 132 117 129 106 120 139 149 136 131 131 133 135 140 139 132 131 127 117
240 235 216 240 225 226 253 254 229 250 258 240 246 261 238 197 191 258 261 291 325 323 277 259 219 187 158 125 114 124 137 131 124 109 106 107 111 117 111 108 107 109 114 113 108 112 108 109 107 105 105 96 79 60
232 225 216 229 209 203 231 248 217 214 223 238 252 275 245 197 217 243 289 301 321 31 124 132 136 144 142 138 118 119 125 136 142 125 117 115 92 96 96 99 84 73 72 83 95 90 86 81 81 68 60 49 36 17
244 244 229 233 253 240 249 264 271 270 247 242 249 254 200 212 222 139 227 27 74 97 101 101 110 116 111 118 129 129 138 138 116 104 92 88 77 74 72 71 56 51 58 59 47 32 34 30 34 42 61 68 61 36
237 248 217 215 222 224 231 234 240 239 229 223 251 298 353 19 87 170 91 101 100 95 90 89 90 91 103 114 117 119 113 96 79 66 74 81 82 85 94 82 75 30 357 2 16 23 33 50 66 74 56 43 27 11
242 242 226 227 202 209 213 207 228 227 238 198 112 147 192 40 101 111 123 128 110 97 98 95 65 72 68 70 88 114 125 107 132 140 130 122 123 107 109 114 356 316 338 343 9 22 26 36 47 29 23 15 8 357
276 193 239 33 31 20 30 79 33 48 134 126 116 104 84 79 101 117 130 127 116 110 114 107 101 95 81 86 90 90 76 67 62 84 116 122 113 98 65 58 65 55 34 21 27 24 13 1 355 353 2 12 13 21
68 54 42 34 40 55 84 92 87 91 90 87 90 87 86 78 68 63 73 87 106 117 129 127 129 106 88 79 68 62 60 51 51 67 93 107 99 62 58 65 66 47 14 10 5 354 355 4 16 16 26 29 27 22
54 38 67 75 102 109 67 51 68 77 77 80 84 81 78 72 72 54 78 86 94 95 83 74 78 76 66 69 61 60 57 55 59 74 81 81 69 70 67 70 67 13 7 19 21 18 19 27 30 34 26 21 19 14
119 114 118 130 243 259 213 203 137 157 160 191 147 111 97 81 88 105 76 120 140 132 101 67 59 65 61 54 46 46 53 55 56 61 68 74 73 69 65 59 55 46 33 28 39 35 31 35 35 24 16 8 4 3
Wind_Speed_850mb
53 46 39 32 25 18 12 7 5 6 9 11 12 14 14 14 12 6 12 13 10 11 26 25 19 25 17 4 2 26 16 10 11 8 4 4 5 8 3 8 10 13 11 7 6 4 13 16 15 15 12 13 32 24
51 44 37 30 23 16 11 7 7 9 12 12 13 14 15 16 16 11 16 18 17 19 18 16 26 29 31 25 29 9 13 16 6 5 4 3 3 1 4 7 1 4 10 9 14 11 7 37 11 28 15 32 31 23
47 40 33 26 20 14 11 9 10 12 14 16 15 14 16 17 17 18 16 21 20 22 45 41 24 11 29 39 27 13 10 5 8 13 5 4 7 6 2 7 3 4 3 6 3 7 9 18 27 19 26 26 23 23
45 37 31 24 19 14 12 12 13 14 16 18 18 16 16 18 18 21 19 15 13 7 10 12 12 20 16 19 27 38 39 34 40 37 15 4 5 7 6 6 6 4 3 4 6 16 13 13 28 35 36 26 25 27
42 34 29 23 19 16 14 14 15 16 17 19 20 19 16 18 18 19 21 15 15 13 7 25 51 34 33 38 37 41 41 41 32 7 6 7 10 1 4 3 5 16 12 9 11 21 14 20 34 37 34 31 28 38
37 32 26 21 17 15 14 14 15 16 17 20 21 19 16 16 15 13 9 17 26 23 9 8 19 32 26 31 34 36 39 47 37 14 14 12 13 3 4 6 17 30 26 24 14 15 36 16 36 39 39 37 39 40
36 30 25 20 16 14 13 13 14 15 17 20 20 16 15 15 16 17 5 9 27 24 6 14 17 14 18 19 38 46 40 33 36 20 16 22 38 19 5 8 29 27 30 26 35 29 26 37 40 48 49 41 46 40
33 27 22 18 15 11 9 10 13 15 17 19 14 11 11 12 14 20 11 21 8 10 7 6 11 16 6 8 13 37 38 34 25 23 10 11 9 9 9 29 42 48 51 48 46 47 52 53 52 48 45 50 53 51
29 24 20 16 11 7 6 9 12 14 19 16 7 5 10 8 5 6 10 21 14 14 8 6 4 8 22 7 8 12 24 7 12 16 20 14 6 11 15 33 44 50 54 50 51 51 52 63 44 46 50 54 64 59
27 24 20 13 7 3 5 9 11 15 15 7 6 3 5 3 6 6 14 10 13 15 15 10 10 8 18 20 9 6 8 8 7 12 20 8 20 55 64 72 79 75 67 59 55 57 58 67 63 50 68 69 73 68
28 23 16 9 3 2 6 10 11 14 5 5 3 5 8 8 5 7 10 10 11 7 15 20 41 17 14 2 6 9 5 3 6 11 12 7 7 29 60 75 76 72 67 68 78 70 62 68 65 66 67 74 74 60
25 19 13 6 3 5 8 10 11 8 2 7 6 9 9 9 9 6 8 8 8 9 13 18 29 43 22 22 11 12 7 3 11 5 7 6 14 57 51 45 46 48 47 43 49 56 57 63 71 68 68 75 63 48
20 14 8 2 4 6 7 6 9 5 7 4 4 4 6 6 1 9 10 6 6 10 11 18 7 11 20 24 13 3 6 10 3 4 7 9 10 11 15 20 30 36 40 44 42 41 44 44 49 48 57 66 61 51
15 9 3 3 6 6 7 5 7 1 8 5 4 6 7 7 8 7 5 8 23 15 21 24 14 16 17 10 12 7 9 2 1 4 9 8 23 22 20 16 12 21 27 29 33 29 20 22 36 47 60 65 57 48
11 4 2 5 6 4 6 5 4 5 5 5 6 8 12 15 18 22 26 22 29 24 17 9 12 14 7 6 8 4 4 9 9 10 8 19 12 8 6 10 16 17 17 13 6 9 33 53 65 71 62 48 27 13
7 5 5 2 3 6 8 7 5 6 6 8 12 8 12 19 15 21 36 40 34 34 20 12 9 3 11 7 6 11 6 7 6 10 31 20 14 10 4 3 4 5 2 4 18 29 52 63 60 49 25 19 30 18
8 9 8 3 5 6 10 8 3 7 9 9 14 23 30 22 25 37 45 44 33 34 5 6 7 17 4 6 9 7 4 8 25 23 14 7 8 2 4 3 3 7 15 24 25 29 37 42 38 27 26 27 14 32
10 13 10 4 9 9 9 7 5 10 13 22 17 21 23 34 28 42 51 35 35 34 13 5 8 4 4 4 5 4 6 13 16 15 16 14 12 11 6 4 10 9 12 15 18 31 32 29 27 21 26 42 44 44
17 9 7 4 6 10 7 9 13 10 23 26 30 35 32 44 38 47 51 56 51 39 18 13 7 5 2 2 7 13 15 14 16 10 8 9 8 10 10 8 10 13 15 18 23 31 42 38 22 19 38 39 38 37
19 14 11 10 11 9 8 10 14 12 11 9 20 25 21 26 35 41 38 41 39 15 8 6 7 5 5 10 15 19 18 14 10 3 3 7 6 6 3 7 10 13 17 16 18 23 29 29 20 31 35 21 11 22
16 16 17 20 24 16 12 9 11 12 15 14 21 20 16 23 29 29 30 30 20 14 13 20 11 12 14 23 22 22 21 25 29 20 28 17 16 12 6 4 6 12 18 33 52 55 50 48 41 38 36 33 24 30
7 5 10 10 9 9 15 17 13 15 12 17 20 12 14 10 10 7 12 10 11 15 18 16 21 21 23 25 24 25 27 28 28 30 30 28 30 16 10 18 26 28 32 35 31 31 37 28 26 24 37 42 40 34
5 9 10 10 9 11 12 12 11 9 8 8 10 8 8 7 7 12 6 7 9 13 17 20 19 17 19 21 25 25 22 21 22 20 17 22 16 12 19 16 17 18 25 33 35 33 35 36 38 32 30 24 18 17
13 8 8 9 19 10 8 10 13 10 8 5 3 7 6 6 9 7 6 6 8 18 19 21 16 12 12 14 10 10 10 14 13 15 14 25 27 24 22 16 13 16 25 27 28 39 39 38 32 26 21 18 17 16
7 11 10 16 15 11 8 6 6 2 6 6 6 7 8 8 2 4 4 8 19 12 9 17 23 26 20 27 24 21 27 39 44 46 46 51 48 54 55 53 51 49 46 40 33 30 31 27 26 24 20 16 14 13
12 13 14 10 10 10 8 5 8 9 6 6 8 8 6 5 5 3 4 11 14 9 17 24 34 35 27 27 31 30 31 39 44 54 49 36 31 38 34 28 24 32 31 21 17 17 18 15 9 6 7 10 10 10
9 11 19 19 12 8 7 9 10 7 6 6 6 5 5 4 2 3 8 14 23 27 39 49 48 47 50 46 41 34 31 32 47 53 37 28 27 27 23 24 22 16 7 7 8 9 9 8 9 10 13 13 13 16
21 13 13 14 15 17 6 5 5 7 8 12 7 3 2 5 3 6 19 36 39 38 46 54 55 51 54 58 54 56 37 24 17 17 14 12 12 10 9 9 9 4 8 10 10 11 14 14 13 12 11 14 17 23
14 20 15 10 12 12 17 14 12 13 12 11 5 3 3 2 13 16 23 26 25 29 28 22 27 30 33 28 20 13 11 14 14 17 22 24 19 17 11 5 0 4 7 10 13 15 14 11 10 10 13 17 20 21
7 11 8 8 4 9 14 6 15 21 10 22 19 27 32 33 20 10 18 25 36 28 25 26 23 16 17 15 16 15 14 13 10 9 12 16 16 11 6 7 7 6 6 7 10 10 11 13 14 16 16 16 18 22
7 10 12 15 12 23 30 35 44 51 57 57 53 47 35 33 47 44 37 27 21 18 17 18 18 12 12 14 14 12 16 22 19 13 12 11 7 7 9 9 8 5 5 7 8 9 11 10 11 14 16 20 24 26
14 11 5 7 7 20 15 17 16 19 22 29 32 37 32 20 12 16 17 20 12 17 18 15 14 17 13 11 13 18 21 23 20 14 9 6 6 10 10 8 5 4 5 6 9 11 12 13 12 12 15 18 21 23
11 12 22 9 2 5 8 4 2 5 4 5 3 6 8 6 7 7 19 12 11 11 10 12 15 17 17 14 15 16 16 18 23 21 15 14 12 12 13 13 14 14 10 8 9 10 11 13 13 14 18 21 24 28
Wind_Direction_850mb
174 175 175 175 175 178 186 207 255 295 310 311 305 299 291 281 270 239 197 215 220 247 262 256 247 278 290 293 42 325 335 341 3 55 125 221 189 238 165 216 193 180 152 197 108 133 266 156 136 173 210 170 173 187
172 174 175 177 180 188 201 230 272 298 308 312 309 300 288 279 272 246 204 213 238 262 264 265 250 263 261 272 284 293 290 282 341 48 335 300 286 332 155 270 102 229 181 188 176 215 219 196 234 216 233 180 182 196
172 174 178 182 188 198 220 248 277 296 309 315 313 302 285 273 270 258 233 221 247 284 291 273 279 237 243 243 249 237 262 280 50 9 321 265 265 138 147 250 302 304 152 143 97 247 262 227 214 216 189 193 193 203
172 176 180 185 193 208 233 259 278 293 308 315 313 303 282 268 261 257 248 233 237 276 283 287 232 229 205 213 233 246 255 263 282 295 306 262 240 207 222 225 187 212 43 134 273 283 298 209 193 192 188 203 203 191
171 176 180 186 197 215 239 259 275 290 307 315 314 306 289 267 258 258 255 240 224 236 279 292 299 282 248 242 245 242 242 251 262 258 228 241 257 287 296 37 263 192 183 163 226 229 201 217 210 196 206 218 235 200
172 177 180 187 202 222 239 257 278 294 306 314 315 308 287 267 256 249 231 231 210 219 292 308 301 286 265 245 238 232 239 235 232 200 216 240 253 313 315 230 259 228 215 217 229 246 231 250 199 210 221 235 219 211
172 174 180 190 203 220 239 262 282 298 309 316 317 302 287 267 238 214 188 186 174 187 249 294 287 283 295 276 228 227 227 225 224 216 222 238 265 285 213 239 276 265 223 238 252 252 246 232 225 225 232 236 222 216
167 173 179 187 196 213 240 273 292 301 312 319 311 288 284 255 244 233 188 153 155 190 252 267 274 302 349 268 215 207 212 217 214 215 207 195 239 220 237 237 254 254 259 255 253 249 246 248 239 238 243 240 216 209
166 170 174 175 180 206 254 289 304 312 317 316 289 251 293 248 223 101 153 197 209 230 278 240 248 263 345 358 269 212 202 165 219 200 224 218 206 232 230 238 243 249 244 250 249 249 257 239 242 245 232 213 212 198
164 165 165 165 179 237 285 315 325 327 322 313 189 307 275 114 29 59 157 183 209 211 226 243 272 273 343 350 314 320 208 199 183 231 220 188 238 247 254 261 272 278 281 278 274 289 262 243 237 239 213 218 217 201
158 157 156 159 171 306 321 338 348 348 348 103 148 264 278 275 200 184 191 196 202 242 218 220 232 254 280 267 268 272 272 222 173 237 162 220 259 236 256 257 262 264 267 275 281 282 276 268 251 237 227 219 207 197
155 157 159 148 34 359 351 356 3 2 140 162 267 295 300 199 202 202 193 209 184 227 215 205 226 217 235 226 242 262 236 154 233 142 144 247 245 256 256 263 276 278 282 290 291 285 283 267 255 248 240 211 193 179
159 161 164 175 353 352 347 359 2 2 163 197 300 301 279 254 28 209 206 222 215 228 224 201 209 217 203 216 221 238 248 238 115 130 215 229 288 281 275 274 296 303 302 299 309 299 290 294 272 247 212 196 177 175
171 176 205 305 324 330 332 346 357 102 172 192 230 264 234 213 254 220 268 246 241 276 312 297 281 214 202 174 217 206 247 345 200 168 222 243 257 275 280 286 330 345 337 330 318 310 278 238 197 173 164 160 157 141
179 189 317 305 291 291 296 289 334 212 179 239 231 239 225 251 276 314 334 323 328 307 279 276 252 228 239 234 199 238 229 225 193 207 227 278 278 296 332 28 25 22 7 351 299 186 166 158 154 144 142 128 107 56
169 147 135 128 329 276 255 265 299 204 214 233 234 260 290 312 315 326 332 319 323 329 314 231 245 197 241 208 179 219 186 197 355 307 318 316 311 306 291 350 17 75 42 157 163 164 162 156 152 143 143 113 97 83
167 162 169 83 349 296 263 251 212 236 231 232 238 237 238 261 266 304 308 300 319 324 274 194 225 217 282 200 235 55 41 281 303 329 5 345 324 273 209 241 180 141 157 161 168 183 186 194 200 205 242 251 200 167
182 193 200 277 343 342 304 245 232 253 244 244 245 247 229 245 269 294 287 279 285 293 286 258 286 260 286 31 59 266 276 24 24 51 53 52 39 19 358 277 246 220 209 213 216 207 211 226 247 254 216 179 171 173
192 183 208 259 334 331 273 223 212 253 245 249 257 262 253 262 249 266 275 275 278 281 276 277 233 158 36 99 222 285 329 357 6 25 59 46 8 350 323 291 264 271 266 250 244 238 237 229 206 202 171 169 176 200
202 204 229 259 314 319 276 255 211 253 258 259 254 259 248 252 275 272 274 280 283 257 241 233 225 137 204 319 303 295 293 299 278 296 355 352 324 340 44 20 352 324 294 264 224 200 201 226 208 172 165 151 128 169
220 227 246 269 284 265 266 275 256 245 277 266 283 283 270 264 259 263 272 263 256 216 220 232 259 267 298 316 296 276 278 277 255 253 278 251 212 181 118 61 74 92 140 121 115 109 111 106 100 111 137 165 181 152
204 254 299 278 258 246 257 240 247 282 272 268 285 258 258 258 260 280 280 237 230 229 223 237 244 266 283 278 274 273 264 277 260 244 254 228 185 176 165 152 140 133 136 134 135 125 117 110 118 128 132 136 141 137
260 277 247 246 246 242 255 234 241 247 248 264 305 301 286 305 306 325 249 235 247 250 259 263 280 261 256 272 281 284 272 237 226 236 229 214 204 173 154 135 118 115 130 115 117 120 124 132 139 151 149 143 141 131
248 244 243 237 214 264 245 237 218 250 268 274 271 271 268 280 326 338 283 282 289 307 279 256 244 220 226 242 241 222 201 209 164 147 141 136 132 117 129 106 120 139 149 136 131 131 133 135 140 139 132 131 127 117
240 235 216 240 225 226 253 254 229 250 258 240 246 261 238 197 191 258 261 291 325 323 277 259 219 187 158 125 114 124 137 131 124 109 106 107 111 117 111 108 107 109 114 113 108 112 108 109 107 105 105 96 79 60
232 225 216 229 209 203 231 248 217 214 223 238 252 275 245 197 217 243 289 301 321 31 124 132 136 144 142 138 118 119 125 136 142 125 117 115 92 96 96 99 84 73 72 83 95 90 86 81 81 68 60 49 36 17
244 244 229 233 253 240 249 264 271 270 247 242 249 254 200 212 222 139 227 27 74 97 101 101 110 116 111 118 129 129 138 138 116 104 92 88 77 74 72 71 56 51 58 59 47 32 34 30 34 42 61 68 61 36
237 248 217 215 222 224 231 234 240 239 229 223 251 298 353 19 87 170 91 101 100 95 90 89 90 91 103 114 117 119 113 96 79 66 74 81 82 85 94 82 75 30 357 2 16 23 33 50 66 74 56 43 27 11
242 242 226 227 202 209 213 207 228 227 238 198 112 147 192 40 101 111 123 128 110 97 98 95 65 72 68 70 88 114 125 107 132 140 130 122 123 107 109 114 356 316 338 343 9 22 26 36 47 29 23 15 8 357
276 193 239 33 31 20 30 79 33 48 134 126 116 104 84 79 101 117 130 127 116 110 114 107 101 95 81 86 90 90 76 67 62 84 116 122 113 98 65 58 65 55 34 21 27 24 13 1 355 353 2 12 13 21
68 54 42 34 40 55 84 92 87 91 90 87 90 87 86 78 68 63 73 87 106 117 129 127 129 106 88 79 68 62 60 51 51 67 93 107 99 62 58 65 66 47 14 10 5 354 355 4 16 16 26 29 27 22
54 38 67 75 102 109 67 51 68 77 77 80 84 81 78 72 72 54 78 86 94 95 83 74 78 76 66 69 61 60 57 55 59 74 81 81 69 70 67 70 67 13 7 19 21 18 19 27 30 34 26 21 19 14
119 114 118 130 243 259 213 203 137 157 160 191 147 111 97 81 88 105 76 120 140 132 101 67 59 65 61 54 46 46 53 55 56 61 68 74 73 69 65 59 55 46 33 28 39 35 31 35 35 24 16 8 4 3